Location: Unspecified
(51.6250°N, 0.8230°E)
Time: 03:54:40
(UTC+01:00)

CZ-3 Stage 3 - Visible Passes

Search period start: 21 August 2017 00:00
Search period end: 31 August 2017 00:00
Orbit: 429 x 34770 km, 31.0° (Epoch: 20 August)

Date Brightness Start Highest point End Pass type
(mag) Time Alt. Az. Time Alt. Az. Time Alt. Az.
21 Aug 7.7 14:42:56 10° W 15:18:07 45° SSW 20:59:12 10° SSW visible
23 Aug 10.2 18:28:18 10° W 19:13:22 18° WSW 20:53:30 10° WSW visible
24 Aug 7.7 14:33:50 10° W 15:08:32 44° SSW 20:43:20 10° SSW visible
26 Aug 10.2 18:20:14 10° W 19:03:30 17° WSW 20:36:26 10° WSW visible
27 Aug 7.7 14:24:44 10° W 14:58:57 43° SSW 20:27:22 10° SSW visible
29 Aug 10.1 18:12:20 10° W 18:53:39 16° WSW 20:19:09 10° WSW visible
30 Aug 7.6 14:15:37 10° W 14:49:23 42° SSW 20:11:16 10° SSW visible
